Year,Month,Day,Hour,Minute,Value (Times are PST for temperature in C)
2017,06,25,00,00,18.80
2017,06,25,00,01,18.80
2017,06,25,00,02,18.80
2017,06,25,00,03,18.70
2017,06,25,00,04,18.70
2017,06,25,00,05,18.60
2017,06,25,00,06,18.50
2017,06,25,00,07,18.50
2017,06,25,00,08,18.50
2017,06,25,00,09,18.40
2017,06,25,00,10,18.50
2017,06,25,00,11,18.50
2017,06,25,00,12,18.50
2017,06,25,00,13,18.50
2017,06,25,00,14,18.50
2017,06,25,00,15,18.50
2017,06,25,00,16,18.60
2017,06,25,00,17,18.70
2017,06,25,00,18,18.80
2017,06,25,00,19,18.90
2017,06,25,00,20,19.00
2017,06,25,00,21,19.00
2017,06,25,00,22,19.00
2017,06,25,00,23,19.00
2017,06,25,00,24,19.10
2017,06,25,00,25,19.00
2017,06,25,00,26,19.00
2017,06,25,00,27,18.90
2017,06,25,00,28,18.90
2017,06,25,00,29,18.80
2017,06,25,00,30,18.80
2017,06,25,00,31,18.70
2017,06,25,00,32,18.60
2017,06,25,00,33,18.60
2017,06,25,00,34,18.50
2017,06,25,00,35,18.40
2017,06,25,00,36,18.30
2017,06,25,00,37,18.30
2017,06,25,00,38,18.20
2017,06,25,00,39,18.10
2017,06,25,00,40,18.00
2017,06,25,00,41,18.00
2017,06,25,00,42,17.90
2017,06,25,00,43,17.90
2017,06,25,00,44,17.80
2017,06,25,00,45,17.80
2017,06,25,00,46,17.80
2017,06,25,00,47,17.80
2017,06,25,00,48,17.80
2017,06,25,00,49,17.80
2017,06,25,00,50,17.80
2017,06,25,00,51,17.80
2017,06,25,00,52,17.80
2017,06,25,00,53,17.80
2017,06,25,00,54,17.70
2017,06,25,00,55,17.70
2017,06,25,00,56,17.70
2017,06,25,00,57,17.60
2017,06,25,00,58,17.60
2017,06,25,00,59,17.60
2017,06,25,01,00,17.50
2017,06,25,01,01,17.50
2017,06,25,01,02,17.40
2017,06,25,01,03,17.40
2017,06,25,01,04,17.40
2017,06,25,01,05,17.40
2017,06,25,01,06,17.40
2017,06,25,01,07,17.40
2017,06,25,01,08,17.40
2017,06,25,01,09,17.40
2017,06,25,01,10,17.30
2017,06,25,01,11,17.30
2017,06,25,01,12,17.30
2017,06,25,01,13,17.30
2017,06,25,01,14,17.30
2017,06,25,01,15,17.30
2017,06,25,01,16,17.40
2017,06,25,01,17,17.40
2017,06,25,01,18,17.40
2017,06,25,01,19,17.50
2017,06,25,01,20,17.50
2017,06,25,01,21,17.50
2017,06,25,01,22,17.60
2017,06,25,01,23,17.60
2017,06,25,01,24,17.60
2017,06,25,01,25,17.60
2017,06,25,01,26,17.60
2017,06,25,01,27,17.60
2017,06,25,01,28,17.60
2017,06,25,01,29,17.60
2017,06,25,01,30,17.60
2017,06,25,01,31,17.60
2017,06,25,01,32,17.60
2017,06,25,01,33,17.60
2017,06,25,01,34,17.60
2017,06,25,01,35,17.70
2017,06,25,01,36,17.70
2017,06,25,01,37,17.80
2017,06,25,01,38,17.80
2017,06,25,01,39,17.90
2017,06,25,01,40,17.90
2017,06,25,01,41,18.00
2017,06,25,01,42,18.10
2017,06,25,01,43,18.10
2017,06,25,01,44,18.20
2017,06,25,01,45,18.20
2017,06,25,01,46,18.30
2017,06,25,01,47,18.30
2017,06,25,01,48,18.30
2017,06,25,01,49,18.30
2017,06,25,01,50,18.30
2017,06,25,01,51,18.30
2017,06,25,01,52,18.30
2017,06,25,01,53,18.30
2017,06,25,01,54,18.20
2017,06,25,01,55,18.10
2017,06,25,01,56,18.00
2017,06,25,01,57,17.90
2017,06,25,01,58,17.80
2017,06,25,01,59,17.70
2017,06,25,02,00,17.60
2017,06,25,02,01,17.50
2017,06,25,02,02,17.50
2017,06,25,02,03,17.40
2017,06,25,02,04,17.40
2017,06,25,02,05,17.30
2017,06,25,02,06,17.30
2017,06,25,02,07,17.30
2017,06,25,02,08,17.30
2017,06,25,02,09,17.30
2017,06,25,02,10,17.30
2017,06,25,02,11,17.30
2017,06,25,02,12,17.30
2017,06,25,02,13,17.40
2017,06,25,02,14,17.40
2017,06,25,02,15,17.40
2017,06,25,02,16,17.50
2017,06,25,02,17,17.40
2017,06,25,02,18,17.40
2017,06,25,02,19,17.40
2017,06,25,02,20,17.40
2017,06,25,02,21,17.40
2017,06,25,02,22,17.40
2017,06,25,02,23,17.40
2017,06,25,02,24,17.40
2017,06,25,02,25,17.40
2017,06,25,02,26,17.40
2017,06,25,02,27,17.30
2017,06,25,02,28,17.30
2017,06,25,02,29,17.30
2017,06,25,02,30,17.20
2017,06,25,02,31,17.20
2017,06,25,02,32,17.20
2017,06,25,02,33,17.20
2017,06,25,02,34,17.10
2017,06,25,02,35,17.10
2017,06,25,02,36,17.10
2017,06,25,02,37,17.10
2017,06,25,02,38,17.10
2017,06,25,02,39,17.10
2017,06,25,02,40,17.10
2017,06,25,02,41,17.10
2017,06,25,02,42,17.10
2017,06,25,02,43,17.10
2017,06,25,02,44,17.10
2017,06,25,02,45,17.10
2017,06,25,02,46,17.10
2017,06,25,02,47,17.20
2017,06,25,02,48,17.20
2017,06,25,02,49,17.20
2017,06,25,02,50,17.20
2017,06,25,02,51,17.20
2017,06,25,02,52,17.20
2017,06,25,02,53,17.20
2017,06,25,02,54,17.30
2017,06,25,02,55,17.30
2017,06,25,02,56,17.30
2017,06,25,02,57,17.30
2017,06,25,02,58,17.30
2017,06,25,02,59,17.40
2017,06,25,03,00,17.40
2017,06,25,03,01,17.40
2017,06,25,03,02,17.40
2017,06,25,03,03,17.40
2017,06,25,03,04,17.40
2017,06,25,03,05,17.30
2017,06,25,03,06,17.30
2017,06,25,03,07,17.30
2017,06,25,03,08,17.20
2017,06,25,03,09,17.20
2017,06,25,03,10,17.10
2017,06,25,03,11,17.10
2017,06,25,03,12,17.10
2017,06,25,03,13,17.10
2017,06,25,03,14,17.10
2017,06,25,03,15,17.10
2017,06,25,03,16,17.10
2017,06,25,03,17,17.10
2017,06,25,03,18,17.10
2017,06,25,03,19,17.10
2017,06,25,03,20,17.20
2017,06,25,03,21,17.20
2017,06,25,03,22,17.20
2017,06,25,03,23,17.20
2017,06,25,03,24,17.20
2017,06,25,03,25,17.20
2017,06,25,03,26,17.20
2017,06,25,03,27,17.20
2017,06,25,03,28,17.20
2017,06,25,03,29,17.30
2017,06,25,03,30,17.30
2017,06,25,03,31,17.30
2017,06,25,03,32,17.30
2017,06,25,03,33,17.30
2017,06,25,03,34,17.40
2017,06,25,03,35,17.40
2017,06,25,03,36,17.40
2017,06,25,03,37,17.40
2017,06,25,03,38,17.40
2017,06,25,03,39,17.40
2017,06,25,03,40,17.40
2017,06,25,03,41,17.40
2017,06,25,03,42,17.40
2017,06,25,03,43,17.40
2017,06,25,03,44,17.40
2017,06,25,03,45,17.40
2017,06,25,03,46,17.30
2017,06,25,03,47,17.30
2017,06,25,03,48,17.30
2017,06,25,03,49,17.30
2017,06,25,03,50,17.30
2017,06,25,03,51,17.30
2017,06,25,03,52,17.30
2017,06,25,03,53,17.30
2017,06,25,03,54,17.20
2017,06,25,03,55,17.20
2017,06,25,03,56,17.20
2017,06,25,03,57,17.20
2017,06,25,03,58,17.10
2017,06,25,03,59,17.10
2017,06,25,04,00,17.00
2017,06,25,04,01,17.00
2017,06,25,04,02,16.90
2017,06,25,04,03,16.90
2017,06,25,04,04,16.80
2017,06,25,04,05,16.80
2017,06,25,04,06,16.70
2017,06,25,04,07,16.70
2017,06,25,04,08,16.60
2017,06,25,04,09,16.60
2017,06,25,04,10,16.50
2017,06,25,04,11,16.50
2017,06,25,04,12,16.40
2017,06,25,04,13,16.40
2017,06,25,04,14,16.40
2017,06,25,04,15,16.40
2017,06,25,04,16,16.40
2017,06,25,04,17,16.40
2017,06,25,04,18,16.30
2017,06,25,04,19,16.30
2017,06,25,04,20,16.30
2017,06,25,04,21,16.20
2017,06,25,04,22,16.20
2017,06,25,04,23,16.20
2017,06,25,04,24,16.20
2017,06,25,04,25,16.20
2017,06,25,04,26,16.20
2017,06,25,04,27,16.20
2017,06,25,04,28,16.20
2017,06,25,04,29,16.20
2017,06,25,04,30,16.10
2017,06,25,04,31,16.10
2017,06,25,04,32,16.10
2017,06,25,04,33,16.10
2017,06,25,04,34,16.10
2017,06,25,04,35,16.10
2017,06,25,04,36,16.10
2017,06,25,04,37,16.00
2017,06,25,04,38,16.00
2017,06,25,04,39,16.00
2017,06,25,04,40,16.00
2017,06,25,04,41,16.00
2017,06,25,04,42,16.00
2017,06,25,04,43,16.00
2017,06,25,04,44,15.90
2017,06,25,04,45,15.90
2017,06,25,04,46,15.90
2017,06,25,04,47,15.90
2017,06,25,04,48,15.90
2017,06,25,04,49,15.90
2017,06,25,04,50,15.90
2017,06,25,04,51,15.80
2017,06,25,04,52,15.80
2017,06,25,04,53,15.80
2017,06,25,04,54,15.90
2017,06,25,04,55,15.80
2017,06,25,04,56,15.80
2017,06,25,04,57,15.80
2017,06,25,04,58,15.80
2017,06,25,04,59,15.80
2017,06,25,05,00,15.80
2017,06,25,05,01,15.80
2017,06,25,05,02,15.80
2017,06,25,05,03,15.80
2017,06,25,05,04,15.80
2017,06,25,05,05,15.80
2017,06,25,05,06,15.70
2017,06,25,05,07,15.70
2017,06,25,05,08,15.70
2017,06,25,05,09,15.70
2017,06,25,05,10,15.70
2017,06,25,05,11,15.70
2017,06,25,05,12,15.70
2017,06,25,05,13,15.70
2017,06,25,05,14,15.70
2017,06,25,05,15,15.70
2017,06,25,05,16,15.70
2017,06,25,05,17,15.60
2017,06,25,05,18,15.60
2017,06,25,05,19,15.60
2017,06,25,05,20,15.60
2017,06,25,05,21,15.50
2017,06,25,05,22,15.50
2017,06,25,05,23,15.50
2017,06,25,05,24,15.40
2017,06,25,05,25,15.40
2017,06,25,05,26,15.40
2017,06,25,05,27,15.40
2017,06,25,05,28,15.40
2017,06,25,05,29,15.40
2017,06,25,05,30,15.40
2017,06,25,05,31,15.40
2017,06,25,05,32,15.40
2017,06,25,05,33,15.40
2017,06,25,05,34,15.40
2017,06,25,05,35,15.40
2017,06,25,05,36,15.40
2017,06,25,05,37,15.40
2017,06,25,05,38,15.40
2017,06,25,05,39,15.40
2017,06,25,05,40,15.50
2017,06,25,05,41,15.50
2017,06,25,05,42,15.50
2017,06,25,05,43,15.60
2017,06,25,05,44,15.60
2017,06,25,05,45,15.60
2017,06,25,05,46,15.70
2017,06,25,05,47,15.70
2017,06,25,05,48,15.70
2017,06,25,05,49,15.70
2017,06,25,05,50,15.80
2017,06,25,05,51,15.80
2017,06,25,05,52,15.80
2017,06,25,05,53,15.80
2017,06,25,05,54,15.80
2017,06,25,05,55,15.80
2017,06,25,05,56,15.80
2017,06,25,05,57,15.80
2017,06,25,05,58,15.80
2017,06,25,05,59,15.80
2017,06,25,06,00,15.80
2017,06,25,06,01,15.80
2017,06,25,06,02,15.90
2017,06,25,06,03,15.90
2017,06,25,06,04,16.00
2017,06,25,06,05,16.00
2017,06,25,06,06,16.10
2017,06,25,06,07,16.10
2017,06,25,06,08,16.10
2017,06,25,06,09,16.10
2017,06,25,06,10,16.10
2017,06,25,06,11,16.20
2017,06,25,06,12,16.20
2017,06,25,06,13,16.20
2017,06,25,06,14,16.20
2017,06,25,06,15,16.20
2017,06,25,06,16,16.10
2017,06,25,06,17,16.10
2017,06,25,06,18,16.10
2017,06,25,06,19,16.00
2017,06,25,06,20,16.00
2017,06,25,06,21,15.90
2017,06,25,06,22,15.90
2017,06,25,06,23,15.90
2017,06,25,06,24,15.90
2017,06,25,06,25,15.90
2017,06,25,06,26,15.90
2017,06,25,06,27,16.00
2017,06,25,06,28,16.00
2017,06,25,06,29,16.00
2017,06,25,06,30,16.00
2017,06,25,06,31,16.10
2017,06,25,06,32,16.10
2017,06,25,06,33,16.20
2017,06,25,06,34,16.20
2017,06,25,06,35,16.20
2017,06,25,06,36,16.30
2017,06,25,06,37,16.30
2017,06,25,06,38,16.30
2017,06,25,06,39,16.30
2017,06,25,06,40,16.40
2017,06,25,06,41,16.40
2017,06,25,06,42,16.40
2017,06,25,06,43,16.40
2017,06,25,06,44,16.40
2017,06,25,06,45,16.40
2017,06,25,06,46,16.40
2017,06,25,06,47,16.40
2017,06,25,06,48,16.30
2017,06,25,06,49,16.30
2017,06,25,06,50,16.30
2017,06,25,06,51,16.20
2017,06,25,06,52,16.20
2017,06,25,06,53,16.20
2017,06,25,06,54,16.20
2017,06,25,06,55,16.20
2017,06,25,06,56,16.10
2017,06,25,06,57,16.10
2017,06,25,06,58,16.10
2017,06,25,06,59,16.10
2017,06,25,07,00,16.20
2017,06,25,07,01,16.20
2017,06,25,07,02,16.20
2017,06,25,07,03,16.20
2017,06,25,07,04,16.20
2017,06,25,07,05,16.20
2017,06,25,07,06,16.20
2017,06,25,07,07,16.20
2017,06,25,07,08,16.20
2017,06,25,07,09,16.20
2017,06,25,07,10,16.30
2017,06,25,07,11,16.30
2017,06,25,07,12,16.30
2017,06,25,07,13,16.30
2017,06,25,07,14,16.30
2017,06,25,07,15,16.30
2017,06,25,07,16,16.30
2017,06,25,07,17,16.30
2017,06,25,07,18,16.30
2017,06,25,07,19,16.20
2017,06,25,07,20,16.30
2017,06,25,07,21,16.30
2017,06,25,07,22,16.30
2017,06,25,07,23,16.30
2017,06,25,07,24,16.40
2017,06,25,07,25,16.40
2017,06,25,07,26,16.40
2017,06,25,07,27,16.40
2017,06,25,07,28,16.40
2017,06,25,07,29,16.40
2017,06,25,07,30,16.40
2017,06,25,07,31,16.40
2017,06,25,07,32,16.50
2017,06,25,07,33,16.50
2017,06,25,07,34,16.50
2017,06,25,07,35,16.50
2017,06,25,07,36,16.60
2017,06,25,07,37,16.60
2017,06,25,07,38,16.70
2017,06,25,07,39,16.70
2017,06,25,07,40,16.80
2017,06,25,07,41,16.90
2017,06,25,07,42,17.00
2017,06,25,07,43,17.00
2017,06,25,07,44,17.10
2017,06,25,07,45,17.20
2017,06,25,07,46,17.20
2017,06,25,07,47,17.30
2017,06,25,07,48,17.40
2017,06,25,07,49,17.40
2017,06,25,07,50,17.50
2017,06,25,07,51,17.60
2017,06,25,07,52,17.60
2017,06,25,07,53,17.70
2017,06,25,07,54,17.80
2017,06,25,07,55,17.80
2017,06,25,07,56,17.90
2017,06,25,07,57,17.90
2017,06,25,07,58,18.00
2017,06,25,07,59,18.10
2017,06,25,08,00,18.10
2017,06,25,08,01,18.10
2017,06,25,08,02,18.10
2017,06,25,08,03,18.10
2017,06,25,08,04,18.10
2017,06,25,08,05,18.10
2017,06,25,08,06,18.00
2017,06,25,08,07,18.00
2017,06,25,08,08,17.90
2017,06,25,08,09,17.90
2017,06,25,08,10,17.90
2017,06,25,08,11,17.80
2017,06,25,08,12,17.80
2017,06,25,08,13,17.80
2017,06,25,08,14,17.80
2017,06,25,08,15,17.80
2017,06,25,08,16,17.80
2017,06,25,08,17,17.80
2017,06,25,08,18,17.80
2017,06,25,08,19,17.80
2017,06,25,08,20,17.80
2017,06,25,08,21,17.80
2017,06,25,08,22,17.80
2017,06,25,08,23,17.80
2017,06,25,08,24,17.70
2017,06,25,08,25,17.70
2017,06,25,08,26,17.70
2017,06,25,08,27,17.60
2017,06,25,08,28,17.60
2017,06,25,08,29,17.60
2017,06,25,08,30,17.70
2017,06,25,08,31,17.70
2017,06,25,08,32,17.70
2017,06,25,08,33,17.70
2017,06,25,08,34,17.70
2017,06,25,08,35,17.70
2017,06,25,08,36,17.80
2017,06,25,08,37,17.80
2017,06,25,08,38,17.90
2017,06,25,08,39,17.90
2017,06,25,08,40,18.00
2017,06,25,08,41,18.00
2017,06,25,08,42,18.10
2017,06,25,08,43,18.10
2017,06,25,08,44,18.20
2017,06,25,08,45,18.20
2017,06,25,08,46,18.20
2017,06,25,08,47,18.20
2017,06,25,08,48,18.20
2017,06,25,08,49,18.20
2017,06,25,08,50,18.20
2017,06,25,08,51,18.20
2017,06,25,08,52,18.20
2017,06,25,08,53,18.20
2017,06,25,08,54,18.20
2017,06,25,08,55,18.20
2017,06,25,08,56,18.10
2017,06,25,08,57,18.10
2017,06,25,08,58,18.10
2017,06,25,08,59,18.10
2017,06,25,09,00,18.00
2017,06,25,09,01,18.00
2017,06,25,09,02,18.00
2017,06,25,09,03,17.90
2017,06,25,09,04,17.90
2017,06,25,09,05,17.90
2017,06,25,09,06,17.90
2017,06,25,09,07,17.90
2017,06,25,09,08,17.80
2017,06,25,09,09,17.80
2017,06,25,09,10,17.80
2017,06,25,09,11,17.80
2017,06,25,09,12,17.90
2017,06,25,09,13,17.90
2017,06,25,09,14,17.90
2017,06,25,09,15,18.00
2017,06,25,09,16,18.00
2017,06,25,09,17,18.10
2017,06,25,09,18,18.10
2017,06,25,09,19,18.10
2017,06,25,09,20,18.20
2017,06,25,09,21,18.20
2017,06,25,09,22,18.30
2017,06,25,09,23,18.40
2017,06,25,09,24,18.50
2017,06,25,09,25,18.50
2017,06,25,09,26,18.60
2017,06,25,09,27,18.70
2017,06,25,09,28,18.70
2017,06,25,09,29,18.70
2017,06,25,09,30,18.80
2017,06,25,09,31,18.80
2017,06,25,09,32,18.90
2017,06,25,09,33,19.00
2017,06,25,09,34,19.10
2017,06,25,09,35,19.10
2017,06,25,09,36,19.10
2017,06,25,09,37,19.10
2017,06,25,09,38,19.20
2017,06,25,09,39,19.30
2017,06,25,09,40,19.30
2017,06,25,09,41,19.30
2017,06,25,09,42,19.30
2017,06,25,09,43,19.40
2017,06,25,09,44,19.40
2017,06,25,09,45,19.50
2017,06,25,09,46,19.50
2017,06,25,09,47,19.60
2017,06,25,09,48,19.70
2017,06,25,09,49,19.80
2017,06,25,09,50,19.80
2017,06,25,09,51,19.90
2017,06,25,09,52,19.90
2017,06,25,09,53,19.90
2017,06,25,09,54,20.00
2017,06,25,09,55,20.10
2017,06,25,09,56,20.10
2017,06,25,09,57,20.20
2017,06,25,09,58,20.20
2017,06,25,09,59,20.30
2017,06,25,10,00,20.30
2017,06,25,10,01,20.30
2017,06,25,10,02,20.40
2017,06,25,10,03,20.50
2017,06,25,10,04,20.50
2017,06,25,10,05,20.60
2017,06,25,10,06,20.60
2017,06,25,10,07,20.60
2017,06,25,10,08,20.60
2017,06,25,10,09,20.70
2017,06,25,10,10,20.80
2017,06,25,10,11,20.80
2017,06,25,10,12,20.90
2017,06,25,10,13,20.90
2017,06,25,10,14,20.90
2017,06,25,10,15,20.90
2017,06,25,10,16,20.90
2017,06,25,10,17,20.90
2017,06,25,10,18,20.80
2017,06,25,10,19,20.80
2017,06,25,10,20,20.80
2017,06,25,10,21,20.80
2017,06,25,10,22,20.80
2017,06,25,10,23,20.80
2017,06,25,10,24,20.80
2017,06,25,10,25,20.90
2017,06,25,10,26,20.80
2017,06,25,10,27,20.80
2017,06,25,10,28,20.70
2017,06,25,10,29,20.60
2017,06,25,10,30,20.60
2017,06,25,10,31,20.50
2017,06,25,10,32,20.50
2017,06,25,10,33,20.40
2017,06,25,10,34,20.40
2017,06,25,10,35,20.40
2017,06,25,10,36,20.50
2017,06,25,10,37,20.50
2017,06,25,10,38,20.60
2017,06,25,10,39,20.60
2017,06,25,10,40,20.60
2017,06,25,10,41,20.70
2017,06,25,10,42,20.80
2017,06,25,10,43,20.80
2017,06,25,10,44,20.90
2017,06,25,10,45,20.90
2017,06,25,10,46,20.90
2017,06,25,10,47,21.00
2017,06,25,10,48,21.00
2017,06,25,10,49,21.00
2017,06,25,10,50,21.00
2017,06,25,10,51,21.00
2017,06,25,10,52,20.90
2017,06,25,10,53,20.90
2017,06,25,10,54,20.90
2017,06,25,10,55,20.90
2017,06,25,10,56,20.90
2017,06,25,10,57,20.90
2017,06,25,10,58,20.90
2017,06,25,10,59,21.00
2017,06,25,11,00,21.10
2017,06,25,11,01,21.20
2017,06,25,11,02,21.30
2017,06,25,11,03,21.40
2017,06,25,11,04,21.50
2017,06,25,11,05,21.50
2017,06,25,11,06,21.60
2017,06,25,11,07,21.60
2017,06,25,11,08,21.60
2017,06,25,11,09,21.60
2017,06,25,11,10,21.70
2017,06,25,11,11,21.80
2017,06,25,11,12,21.80
2017,06,25,11,13,21.70
2017,06,25,11,14,21.80
2017,06,25,11,15,21.80
2017,06,25,11,16,21.80
2017,06,25,11,17,21.80
2017,06,25,11,18,21.90
2017,06,25,11,19,21.90
2017,06,25,11,20,22.00
2017,06,25,11,21,22.00
2017,06,25,11,22,22.10
2017,06,25,11,23,22.10
2017,06,25,11,24,22.20
2017,06,25,11,25,22.30
2017,06,25,11,26,22.30
2017,06,25,11,27,22.30
2017,06,25,11,28,22.30
2017,06,25,11,29,22.30
2017,06,25,11,30,22.40
2017,06,25,11,31,22.40
2017,06,25,11,32,22.50
2017,06,25,11,33,22.60
2017,06,25,11,34,22.60
2017,06,25,11,35,22.70
2017,06,25,11,36,22.80
2017,06,25,11,37,22.90
2017,06,25,11,38,22.90
2017,06,25,11,39,23.00
2017,06,25,11,40,23.10
2017,06,25,11,41,23.20
2017,06,25,11,42,23.20
2017,06,25,11,43,23.30
2017,06,25,11,44,23.30
2017,06,25,11,45,23.40
2017,06,25,11,46,23.50
2017,06,25,11,47,23.60
2017,06,25,11,48,23.60
2017,06,25,11,49,23.70
2017,06,25,11,50,23.70
2017,06,25,11,51,23.80
2017,06,25,11,52,23.80
2017,06,25,11,53,23.90
2017,06,25,11,54,24.00
2017,06,25,11,55,24.10
2017,06,25,11,56,24.20
2017,06,25,11,57,24.20
2017,06,25,11,58,24.30
2017,06,25,11,59,24.30
2017,06,25,12,00,24.30
2017,06,25,12,01,24.30
2017,06,25,12,02,24.30
2017,06,25,12,03,24.30
2017,06,25,12,04,24.40
2017,06,25,12,05,24.40
2017,06,25,12,06,24.50
2017,06,25,12,07,24.60
2017,06,25,12,08,24.70
2017,06,25,12,09,24.80
2017,06,25,12,10,24.80
2017,06,25,12,11,24.90
2017,06,25,12,12,25.00
2017,06,25,12,13,25.10
2017,06,25,12,14,25.20
2017,06,25,12,15,25.20
2017,06,25,12,16,25.30
2017,06,25,12,17,25.30
2017,06,25,12,18,25.30
2017,06,25,12,19,25.40
2017,06,25,12,20,25.40
2017,06,25,12,21,25.40
2017,06,25,12,22,25.40
2017,06,25,12,23,25.50
2017,06,25,12,24,25.50
2017,06,25,12,25,25.60
2017,06,25,12,26,25.60
2017,06,25,12,27,25.70
2017,06,25,12,28,25.70
2017,06,25,12,29,25.80
2017,06,25,12,30,25.80
2017,06,25,12,31,25.80
2017,06,25,12,32,25.90
2017,06,25,12,33,25.90
2017,06,25,12,34,25.90
2017,06,25,12,35,25.90
2017,06,25,12,36,25.80
2017,06,25,12,37,25.80
2017,06,25,12,38,25.90
2017,06,25,12,39,25.90
2017,06,25,12,40,26.00
2017,06,25,12,41,26.10
2017,06,25,12,42,26.10
2017,06,25,12,43,26.20
2017,06,25,12,44,26.20
2017,06,25,12,45,26.30
2017,06,25,12,46,26.30
2017,06,25,12,47,26.30
2017,06,25,12,48,26.40
2017,06,25,12,49,26.40
2017,06,25,12,50,26.40
2017,06,25,12,51,26.30
2017,06,25,12,52,26.30
2017,06,25,12,53,26.20
2017,06,25,12,54,26.20
2017,06,25,12,55,26.20
2017,06,25,12,56,26.10
2017,06,25,12,57,26.10
2017,06,25,12,58,26.10
2017,06,25,12,59,26.10
2017,06,25,13,00,26.10
2017,06,25,13,01,26.10
2017,06,25,13,02,26.10
2017,06,25,13,03,26.10
2017,06,25,13,04,26.10
2017,06,25,13,05,26.10
2017,06,25,13,06,26.10
2017,06,25,13,07,26.10
2017,06,25,13,08,26.10
2017,06,25,13,09,26.10
2017,06,25,13,10,26.00
2017,06,25,13,11,26.00
2017,06,25,13,12,25.90
2017,06,25,13,13,25.90
2017,06,25,13,14,25.90
2017,06,25,13,15,25.90
2017,06,25,13,16,25.90
2017,06,25,13,17,25.80
2017,06,25,13,18,25.90
2017,06,25,13,19,25.90
2017,06,25,13,20,26.00
2017,06,25,13,21,26.00
2017,06,25,13,22,26.00
2017,06,25,13,23,26.00
2017,06,25,13,24,26.00
2017,06,25,13,25,26.10
2017,06,25,13,26,26.10
2017,06,25,13,27,26.10
2017,06,25,13,28,26.10
2017,06,25,13,29,26.10
2017,06,25,13,30,26.20
2017,06,25,13,31,26.20
2017,06,25,13,32,26.30
2017,06,25,13,33,26.30
2017,06,25,13,34,26.30
2017,06,25,13,35,26.30
2017,06,25,13,36,26.30
2017,06,25,13,37,26.20
2017,06,25,13,38,26.20
2017,06,25,13,39,26.20
2017,06,25,13,40,26.20
2017,06,25,13,41,26.20
2017,06,25,13,42,26.20
2017,06,25,13,43,26.10
2017,06,25,13,44,26.10
2017,06,25,13,45,26.20
2017,06,25,13,46,26.20
2017,06,25,13,47,26.30
2017,06,25,13,48,26.30
2017,06,25,13,49,26.40
2017,06,25,13,50,26.40
2017,06,25,13,51,26.40
2017,06,25,13,52,26.50
2017,06,25,13,53,26.50
2017,06,25,13,54,26.60
2017,06,25,13,55,26.70
2017,06,25,13,56,26.70
2017,06,25,13,57,26.80
2017,06,25,13,58,26.80
2017,06,25,13,59,26.90
2017,06,25,14,00,26.90
2017,06,25,14,01,27.00
2017,06,25,14,02,27.00
2017,06,25,14,03,27.10
2017,06,25,14,04,27.10
2017,06,25,14,05,27.20
2017,06,25,14,06,27.20
2017,06,25,14,07,27.30
2017,06,25,14,08,27.40
2017,06,25,14,09,27.50
2017,06,25,14,10,27.60
2017,06,25,14,11,27.60
2017,06,25,14,12,27.70
2017,06,25,14,13,27.70
2017,06,25,14,14,27.80
2017,06,25,14,15,27.80
2017,06,25,14,16,27.80
2017,06,25,14,17,27.80
2017,06,25,14,18,27.80
2017,06,25,14,19,27.80
2017,06,25,14,20,27.80
2017,06,25,14,21,27.80
2017,06,25,14,22,27.90
2017,06,25,14,23,27.90
2017,06,25,14,24,27.90
2017,06,25,14,25,27.90
2017,06,25,14,26,27.90
2017,06,25,14,27,27.90
2017,06,25,14,28,27.90
2017,06,25,14,29,28.00
2017,06,25,14,30,28.10
2017,06,25,14,31,28.10
2017,06,25,14,32,28.10
2017,06,25,14,33,28.10
2017,06,25,14,34,28.10
2017,06,25,14,35,28.10
2017,06,25,14,36,28.10
2017,06,25,14,37,28.10
2017,06,25,14,38,28.20
2017,06,25,14,39,28.30
2017,06,25,14,40,28.30
2017,06,25,14,41,28.40
2017,06,25,14,42,28.40
2017,06,25,14,43,28.50
2017,06,25,14,44,28.50
2017,06,25,14,45,28.50
2017,06,25,14,46,28.60
2017,06,25,14,47,28.60
2017,06,25,14,48,28.50
2017,06,25,14,49,28.50
2017,06,25,14,50,28.50
2017,06,25,14,51,28.60
2017,06,25,14,52,28.50
2017,06,25,14,53,28.50
2017,06,25,14,54,28.40
2017,06,25,14,55,28.40
2017,06,25,14,56,28.50
2017,06,25,14,57,28.50
2017,06,25,14,58,28.60
2017,06,25,14,59,28.70
2017,06,25,15,00,28.80
2017,06,25,15,01,28.90
2017,06,25,15,02,28.90
2017,06,25,15,03,29.00
2017,06,25,15,04,29.00
2017,06,25,15,05,29.00
2017,06,25,15,06,28.90
2017,06,25,15,07,28.90
2017,06,25,15,08,28.80
2017,06,25,15,09,28.80
2017,06,25,15,10,28.80
2017,06,25,15,11,28.80
2017,06,25,15,12,28.80
2017,06,25,15,13,28.80
2017,06,25,15,14,28.80
2017,06,25,15,15,28.80
2017,06,25,15,16,28.80
2017,06,25,15,17,28.80
2017,06,25,15,18,28.80
2017,06,25,15,19,28.80
2017,06,25,15,20,28.90
2017,06,25,15,21,28.90
2017,06,25,15,22,28.90
2017,06,25,15,23,29.00
2017,06,25,15,24,29.00
2017,06,25,15,25,29.00
2017,06,25,15,26,29.10
2017,06,25,15,27,29.10
2017,06,25,15,28,29.20
2017,06,25,15,29,29.20
2017,06,25,15,30,29.20
2017,06,25,15,31,29.10
2017,06,25,15,32,29.10
2017,06,25,15,33,29.10
2017,06,25,15,34,29.20
2017,06,25,15,35,29.20
2017,06,25,15,36,29.30
2017,06,25,15,37,29.30
2017,06,25,15,38,29.40
2017,06,25,15,39,29.50
2017,06,25,15,40,29.60
2017,06,25,15,41,29.70
2017,06,25,15,42,29.70
2017,06,25,15,43,29.80
2017,06,25,15,44,29.80
2017,06,25,15,45,29.70
2017,06,25,15,46,29.70
2017,06,25,15,47,29.70
2017,06,25,15,48,29.70
2017,06,25,15,49,29.70
2017,06,25,15,50,29.70
2017,06,25,15,51,29.70
2017,06,25,15,52,29.60
2017,06,25,15,53,29.50
2017,06,25,15,54,29.50
2017,06,25,15,55,29.40
2017,06,25,15,56,29.40
2017,06,25,15,57,29.40
2017,06,25,15,58,29.40
2017,06,25,15,59,29.40
2017,06,25,16,00,29.50
2017,06,25,16,01,29.60
2017,06,25,16,02,29.70
2017,06,25,16,03,29.80
2017,06,25,16,04,29.80
2017,06,25,16,05,29.90
2017,06,25,16,06,29.90
2017,06,25,16,07,29.80
2017,06,25,16,08,29.80
2017,06,25,16,09,29.80
2017,06,25,16,10,29.80
2017,06,25,16,11,29.90
2017,06,25,16,12,29.90
2017,06,25,16,13,29.80
2017,06,25,16,14,29.80
2017,06,25,16,15,29.90
2017,06,25,16,16,29.90
2017,06,25,16,17,29.90
2017,06,25,16,18,29.90
2017,06,25,16,19,29.90
2017,06,25,16,20,29.90
2017,06,25,16,21,29.90
2017,06,25,16,22,29.90
2017,06,25,16,23,29.90
2017,06,25,16,24,29.90
2017,06,25,16,25,29.80
2017,06,25,16,26,29.70
2017,06,25,16,27,29.60
2017,06,25,16,28,29.60
2017,06,25,16,29,29.60
2017,06,25,16,30,29.60
2017,06,25,16,31,29.50
2017,06,25,16,32,29.40
2017,06,25,16,33,29.40
2017,06,25,16,34,29.40
2017,06,25,16,35,29.40
2017,06,25,16,36,29.40
2017,06,25,16,37,29.40
2017,06,25,16,38,29.40
2017,06,25,16,39,29.40
2017,06,25,16,40,29.50
2017,06,25,16,41,29.60
2017,06,25,16,42,29.60
2017,06,25,16,43,29.60
2017,06,25,16,44,29.60
2017,06,25,16,45,29.60
2017,06,25,16,46,29.50
2017,06,25,16,47,29.50
2017,06,25,16,48,29.40
2017,06,25,16,49,29.30
2017,06,25,16,50,29.20
2017,06,25,16,51,29.20
2017,06,25,16,52,29.10
2017,06,25,16,53,29.10
2017,06,25,16,54,29.00
2017,06,25,16,55,29.00
2017,06,25,16,56,28.90
2017,06,25,16,57,28.90
2017,06,25,16,58,28.90
2017,06,25,16,59,28.90
2017,06,25,17,00,28.80
2017,06,25,17,01,28.70
2017,06,25,17,02,28.70
2017,06,25,17,03,28.60
2017,06,25,17,04,28.50
2017,06,25,17,05,28.50
2017,06,25,17,06,28.40
2017,06,25,17,07,28.30
2017,06,25,17,08,28.20
2017,06,25,17,09,28.10
2017,06,25,17,10,28.00
2017,06,25,17,11,27.90
2017,06,25,17,12,27.80
2017,06,25,17,13,27.70
2017,06,25,17,14,27.50
2017,06,25,17,15,27.40
2017,06,25,17,16,27.30
2017,06,25,17,17,27.30
2017,06,25,17,18,27.20
2017,06,25,17,19,27.20